• Join FlightAware (Why Join?)
  • Login
  • US Flag 
07:56PM EDT


 

Airport Tracker/Info


-or-


 

Live Flight TrackerFlight Track Log ✈ SWA3924 ✈ 02-May-2013 ✈ KOAK - KPDX

Flight Track Log - Related Links

Times and Time Zones

All times are in EDT time to prevent confusion due to time zone crossing. See the SWA3924 flight status page for this flight to view local times or setup timezone preferences in your user account.

Time Position Orientation Groundspeed Altitude Reporting Facility
EDT Latitude Longitude Course Direction KTS MPH feet Rate Location/Type
10:46PM 37.7644 -122.2994 316° Northwest 198 228 3,800  Level Oakland Center
10:47PM 37.8367 -122.3114 353° North 253 291 7,200 3,300 Climbing Oakland Center
10:48PM 37.9161 -122.3256 352° North 281 323 10,600 3,240 Climbing Oakland Center
10:49PM 38.0106 -122.3425 352° North 342 394 13,900 3,180 Climbing Oakland Center
10:50PM 38.1094 -122.3594 352° North 359 413 17,200 3,120 Climbing Oakland Center
10:51PM 38.2125 -122.3742 354° North 375 432 20,300 2,700 Climbing Oakland Center
10:52PM 38.3444 -122.3819 357° North 397 457 22,800 2,040 Climbing Oakland Center
10:53PM 38.4658 -122.3886 358° North 432 497 24,500 1,800 Climbing Oakland Center
10:54PM 38.5900 -122.3956 357° North 446 513 26,500 2,280 Climbing Oakland Center
10:55PM 38.7044 -122.4047 356° North 450 518 29,200 2,400 Climbing Oakland Center
10:56PM 38.8264 -122.4114 358° North 438 504 31,500 2,220 Climbing Oakland Center
10:57PM 38.9481 -122.4178 358° North 435 501 33,800 2,280 Climbing Oakland Center
10:58PM 39.0903 -122.4258 357° North 427 491 36,200 1,860 Climbing Oakland Center
10:59PM 39.2064 -122.4339 357° North 419 482 37,600 1,500 Climbing Oakland Center
11:00PM 39.3225 -122.4406 357° North 416 479 39,300 1,140 Climbing Oakland Center
11:01PM 39.4375 -122.4458 358° North 414 476 40,000 300 Climbing Oakland Center
11:02PM 39.5511 -122.4553 356° North 408 470 40,000  Level Oakland Center
11:03PM 39.6642 -122.4625 357° North 407 468 40,000  Level Oakland Center
11:04PM 39.7769 -122.4694 357° North 404 465 40,000  Level Oakland Center
11:05PM 39.8903 -122.4767 357° North 404 465 40,000  Level Oakland Center
11:06PM 40.0025 -122.4839 357° North 401 461 40,000  Level Oakland Center
11:07PM 40.1164 -122.4919 357° North 402 463 40,000  Level Oakland Center
11:08PM 40.2322 -122.4983 358° North 406 467 40,000  Level Oakland Center
11:09PM 40.3461 -122.5036 358° North 404 465 40,000  Level Oakland Center
11:10PM 40.4592 -122.5108 357° North 404 465 40,000  Level Oakland Center
11:11PM 40.5733 -122.5178 357° North 411 473 40,000  Level Oakland Center
11:12PM 40.6867 -122.5231 358° North 408 470 40,000  Level Oakland Center
11:13PM 40.8008 -122.5283 358° North 410 472 40,000  Level Oakland Center
11:14PM 40.9364 -122.5375 357° North 406 467 40,000  Level Oakland Center
11:16PM 41.0494 -122.5431 358° North 406 467 40,000  Level Oakland Center
11:17PM 41.1614 -122.5564 355° North 404 465 40,000  Level Oakland Center
11:18PM 41.2719 -122.5639 357° North 401 461 40,000  Level Oakland Center
11:19PM 41.3700 -122.5644 360° North 400 460 40,000  Level Oakland Center
11:19PM 41.4597 -122.5739 355° North 401 461 40,000  Level Seattle Center
11:20PM 41.5711 -122.5806 357° North 399 459 40,000  Level Seattle Center
11:21PM 41.6825 -122.5878 357° North 400 460 40,000  Level Seattle Center
11:22PM 41.7942 -122.5942 358° North 400 460 40,000  Level Seattle Center
11:23PM 41.9061 -122.6017 357° North 401 461 40,000  Level Seattle Center
11:24PM 42.0203 -122.6092 357° North 406 467 40,000  Level Seattle Center
11:25PM 42.1319 -122.6183 357° North 400 460 40,000  Level Seattle Center
11:26PM 42.2464 -122.6242 358° North 407 468 40,000  Level Seattle Center
11:27PM 42.3572 -122.6314 357° North 400 460 40,000  Level Seattle Center
11:28PM 42.4706 -122.6403 357° North 404 465 40,000  Level Seattle Center
11:29PM 42.5839 -122.6467 358° North 405 466 40,000  Level Seattle Center
11:30PM 42.6964 -122.6547 357° North 404 465 40,000  Level Seattle Center
11:31PM 42.8050 -122.6608 358° North 404 465 40,000  Level Seattle Center
11:32PM 42.9175 -122.6689 357° North 403 464 40,000  Level Seattle Center
11:33PM 43.0519 -122.6781 357° North 403 464 40,000  Level Seattle Center
11:34PM 43.1642 -122.6853 357° North 405 466 40,000  Level Seattle Center
11:35PM 43.2781 -122.6928 357° North 409 471 40,000  Level Seattle Center
11:36PM 43.3919 -122.6997 357° North 409 471 40,000  Level Seattle Center
11:37PM 43.5072 -122.7078 357° North 414 476 40,000  Level Seattle Center
11:38PM 43.6219 -122.7147 357° North 415 478 40,000  Level Seattle Center
11:39PM 43.7369 -122.7239 357° North 416 479 40,000 -300 Level Seattle Center
11:41PM 43.8525 -122.7317 357° North 417 480 39,500 -1,440 Descending Seattle Center
11:42PM 43.9644 -122.7386 357° North 410 472 37,100 -2,700 Descending Seattle Center
11:43PM 44.0808 -122.7472 357° North 417 480 34,100 -3,180 Descending Seattle Center
11:44PM 44.2031 -122.7472 360° North 439 505 30,700 -3,420 Descending Seattle Center
11:45PM 44.3297 -122.7336 North 458 527 27,200 -3,420 Descending Seattle Center
11:46PM 44.4736 -122.7203 North 454 522 23,800 -3,000 Descending Seattle Center
11:47PM 44.5922 -122.7083 North 437 503 21,100 -2,760 Descending Seattle Center
11:48PM 44.7064 -122.6969 North 407 468 18,400 -2,700 Descending Seattle Center
11:48PM 44.7725 -122.6917 North 396 456 16,900 -2,520 Descending Seattle Center
11:49PM 44.8131 -122.6864 North 397 457 15,800 -2,940 Descending Seattle Center
11:49PM 44.8717 -122.6792 North 386 444 14,300 -2,760 Descending Seattle Center
11:50PM 44.9181 -122.6772 North 386 444 13,000 -2,280 Descending Seattle Center
11:50PM 44.9742 -122.6714 North 369 425 12,000 -1,980 Descending Seattle Center
11:51PM 45.0167 -122.6606 10° North 372 428 11,000 -1,800 Descending Seattle Center
11:51PM 45.0636 -122.6322 23° Northeast 336 387 10,200 -1,200 Descending Seattle Center
11:52PM 45.1019 -122.6139 19° North 338 389 9,800 -1,020 Descending Seattle Center
11:52PM 45.1433 -122.5878 24° Northeast 293 337 9,200 -1,140 Descending Seattle Center
11:53PM 45.1767 -122.5714 19° North 298 343 8,700 -1,320 Descending Seattle Center
11:53PM 45.2117 -122.5508 22° Northeast 276 318 8,000 -1,500 Descending Seattle Center
11:54PM 45.2469 -122.5308 22° Northeast 279 321 7,200 -1,680 Descending Seattle Center
11:54PM 45.3050 -122.4975 22° Northeast 274 315 5,800 -1,680 Descending Seattle Center
11:55PM 45.3169 -122.4908 21° North 274 315 5,500 -1,380 Descending Seattle Center
11:55PM 45.3672 -122.4628 21° North 272 313 4,600 -1,380 Descending Seattle Center
11:56PM 45.3881 -122.4519 20° North 274 315 4,100 -1,320 Descending Seattle Center
11:56PM 45.4356 -122.4253 22° Northeast 263 303 3,300 -1,440 Descending Seattle Center
11:57PM 45.4686 -122.4064 22° Northeast 264 304 2,700 -540 Descending Seattle Center
11:57PM 45.5006 -122.3925 17° North 235 270 2,800 -240 Climbing Seattle Center
11:58PM 45.5225 -122.4156 324° Northwest 226 260 2,500 -900 Descending Seattle Center
11:58PM 45.5342 -122.4403 304° West 174 200 2,000 -1,020 Descending Seattle Center
11:59PM 45.5472 -122.4728 300° West 184 212 1,500 -840 Descending Seattle Center
11:59PM 45.5536 -122.4942 293° West 140 161 1,200 -720 Descending Seattle Center
12:00AM 45.5656 -122.5197 304° West 164 189 800 -660 Descending Seattle Center
12:00AM 45.5739 -122.5411 299° West 117 135 500 -420 Descending Seattle Center
12:01AM 45.5800 -122.5575 298° West 150 173 400 -240 Descending Seattle Center